www.pogodaiklimat.ru

Погода и климат >> Архив погоды >> Россия >> Шпицберген >> Баренцбург


АРХИВ ПОГОДЫ в Баренцбурге

Время (UTC), дата Ветер
(напр.,м/с)
 
Видим.   Явления Облачность Т
(С)
Тd
(С)
f
(%)
Тe
(С)
Тes
(С)
Комфортность P
(гПа)
Po
(гПа)
Тmin
(С)
Tmax
(С)
R
(мм)
R24
(мм)
S
(см)
21 12.05 В 3 50 км 10/1 600 м
[Sc Ac As]
+0.1 -4.5 71 -4 -4 по сезону 1028.2 1018.5
00 13.05 В 5 50 км 10/3 600 м
[Sc Ac As]
+0.2 -4.4 71 -6 -6 по сезону 1026.6 1017.0
03 13.05 В 7 50 км 10/3 600 м
[Sc Ac As]
+0.8 -4.1 70 -6 -6 по сезону 1025.1 1015.5 -0.5
06 13.05 В 5 50 км 10/3 600 м
[Sc Ac As]
+0.7 -4.5 68 -5 -5 по сезону 1023.9 1014.2 -0.5 114
09 13.05 В 5 2000 м ливневой снег 10/10 300 м
[Cb cap]
-1.1 -2.0 94 -8 -8 по сезону 1022.5 1012.9
12 13.05 С 6-9
{12}
2000 м ливневой снег {метель} 10/10 300 м
[Cb cap]
-1.1 -2.0 94 -8 -8 по сезону 1020.5 1010.8
15 13.05 В 6 10 км слаб. ливневой снег {метель} 10/10 300 м
[Cb cap]
-0.9 -4.7 75 -8 -8 по сезону 1018.4 1008.7 11
18 13.05 ЮВ 1 20 км {ливн. осадки, метель} 10/3 600 м
[Cb cap Ac und]
-0.4 -4.1 76 -2 -2 по сезону 1016.9 1007.3 +0.7 11
21 13.05 З 1 20 км 10/1 600 м
[Sc Ac As]
-0.1 -3.9 76 -2 -2 тепло 1015.9 1006.3
00 14.05 СВ 2 20 км 10/0
[As op]
+0.1 -3.9 74 -3 -3 по сезону 1014.6 1005.0
03 14.05 С 6 20 км слаб. снег 10/3 300 м
[Frnb As op]
-0.9 -2.2 91 -8 -8 по сезону 1013.8 1004.2 -1.0 0.7
06 14.05 С 5 20 км {снег} 10/10 300 м
[St]
-0.8 -2.1 91 -7 -7 по сезону 1012.7 1003.1 -1.1 0.2 122
09 14.05 С 2 4000 м слаб. снег 10/6 300 м
[Frnb As op]
-0.5 -1.3 94 -4 -4 по сезону 1011.9 1002.3
12 14.05 С 1 4000 м слаб. снег 10/8 200 м
[Frnb As op]
-0.5 -1.0 96 -3 -2 по сезону 1010.5 1000.9
15 14.05 С 1 2000 м снег 10/10 200 м
[Frnb Ns]
-0.3 -0.8 96 -3 -3 по сезону 1009.6 1000.1 3
18 14.05 ЮВ 2 10 км слаб. снег 10/8 300 м
[Frnb As op]
-0.2 -1.1 94 -4 -4 по сезону 1008.4 998.9 +0.3 4
21 14.05 СЗ 2 4000 м слаб. снег 10/10 300 м
[Frnb Ns]
+0.3 -0.2 96 -3 -3 по сезону 1008.3 998.8
00 15.05 СЗ 5-9
{10}
4000 м слаб. снег 10/8 300 м
[Frnb As op]
+0.2 -0.9 92 -6 -6 по сезону 1008.6 999.1
03 15.05 СЗ 4 10 км в посл. час снег 10/10 300 м
[St]
0.0 -1.4 90 -6 -6 по сезону 1009.2 999.7 -0.3 1
06 15.05 СЗ 5 10 км слаб. снег 9/6 300 м
[Frnb As op]
+0.1 -0.7 94 -6 -6 по сезону 1009.8 1000.3 -0.3 1 128
09 15.05 СЗ 5-9
{10}
10 км в посл. час снег 9/6 300 м
[St Ac und]
+0.1 -1.6 88 -6 -5 по сезону 1011.0 1001.5
12 15.05 СЗ 5-10
{10}
10 км слаб. снег 10/6 300 м
[Frnb As op]
-0.1 -2.4 84 -6 -6 по сезону 1012.4 1002.8
15 15.05 СЗ 5-11
{11}
10 км {снег} 9/9 300 м
[Sc]
-0.6 -2.8 85 -7 -7 по сезону 1013.6 1004.0 0.4
18 15.05 СЗ 5-10
{11}
10 км {снег} 10/10 300 м
[St]
-1.0 -3.4 84 -7 -7 по сезону 1014.3 1004.7 +0.2 0.0
21 15.05 СЗ 5-9
{11}
10 км слаб. ливневой снег 10/10 300 м
[Cb cap]
-1.3 -3.6 84 -8 -8 по сезону 1015.1 1005.4
00 16.05 СЗ 4 20 км {ливн. осадки} 10/10 300 м
[St]
-1.5 -3.8 84 -7 -7 по сезону 1015.9 1006.3
03 16.05 СЗ 4-8
{10}
20 км 9/9 300 м
[St]
-1.1 -3.2 86 -7 -7 по сезону 1016.6 1007.0 -1.5 0.3
06 16.05 СЗ 5-10
{10}
20 км 9/8 300 м
[St Ac trans]
-0.2 -2.4 85 -6 -6 по сезону 1017.2 1007.6 -1.5 0.3 123
09 16.05 СЗ 5-9
{12}
20 км 6/4 300 м
[St Ac lent]
-0.1 -2.2 86 -6 -5 по сезону 1018.5 1008.9
12 16.05 СЗ 5-9
{11}
20 км 5/3 300 м
[St Ac lent]
+0.4 -1.9 85 -6 -4 по сезону 1019.7 1010.1
15 16.05 СЗ 2 20 км 5/3 300 м
[St Ac lent]
+1.2 -1.7 81 -2 0 по сезону 1021.1 1011.5
18 16.05 СЗ 2 20 км 4/3 300 м
[St Ac trans]
+1.1 -1.7 82 -2 -1 по сезону 1021.9 1012.3 +1.4
21 16.05 СЗ 3 20 км 5/3 300 м
[St Ac trans]
-0.2 -1.8 89 -5 -5 по сезону 1022.9 1013.2
00 17.05 С 3 20 км 10/10 300 м
[St]
-0.2 -2.1 87 -5 -5 по сезону 1023.2 1013.5
03 17.05 СЗ 2 20 км 9/9 300 м
[St]
+0.1 -2.0 86 -4 -3 по сезону 1023.5 1013.9 -0.3
06 17.05 Ю 2 20 км 10/10 600 м
[Sc]
+0.3 -2.0 85 -3 -3 по сезону 1023.9 1014.2 -0.3 117
09 17.05 штиль 0 20 км 10/10 600 м
[Sc]
+1.6 -2.0 77 +1 +1 тепло 1024.5 1014.9
12 17.05 СВ 1 20 км 10/10 600 м
[Sc]
+1.2 -2.8 75 -0 -0 тепло 1024.8 1015.2
15 17.05 СВ 2 50 км 10/0
[Ac und]
+1.2 -4.1 68 -2 -1 по сезону 1025.3 1015.7
18 17.05 СВ 3 50 км 9/0
[Ac und]
+0.9 -4.0 70 -3 -3 по сезону 1025.8 1016.2 +2.0
21 17.05 ЮВ 1 50 км 10/0
[Ac und]
+0.8 -3.5 73 -1 -1 тепло 1026.4 1016.7
00 18.05 Ю 1 50 км 10/0
[Ac und]
+0.3 -2.5 81 -2 -1 по сезону 1027.0 1017.3
03 18.05 ЮВ 2 50 км 10/0
[Ac und]
+0.5 -3.1 77 -3 -2 по сезону 1027.5 1017.8 +0.1
06 18.05 ЮВ 2 20 км 10/6 600 м
[Sc Ac und]
+0.8 -3.2 75 -2 -2 по сезону 1027.8 1018.2 +0.1 116
09 18.05 Ю 2 20 км 10/6 600 м
[Sc Ac und]
+1.2 -4.1 68 -2 -1 по сезону 1028.6 1018.9
12 18.05 ЮВ 2 20 км 10/5 300 м
[St As trans]
+1.2 -3.6 70 -2 -1 по сезону 1029.3 1019.6
15 18.05 СЗ 2 20 км 10/8 300 м
[St As trans]
+0.5 -2.7 79 -3 -3 по сезону 1029.9 1020.2
18 18.05 СЗ 2 20 км 10/10 300 м
[St]
+0.1 -3.4 77 -3 -3 по сезону 1030.1 1020.4 +1.6
21 18.05 З 2 20 км 10/10 300 м
[St]
+0.1 -3.4 77 -3 -3 по сезону 1030.1 1020.7
00 19.05 СЗ 2 4000 м слаб. ливневой снег 10/10 300 м
[Cb cap]
-1.4 -2.7 91 -5 -5 по сезону 1030.6 1020.8
03 19.05 СЗ 4 20 км {ливн. осадки} 10/10 300 м
[Cb cap]
-1.5 -4.7 79 -7 -7 по сезону 1030.7 1021.0 -1.5 0.5
06 19.05 З 3 50 км {ливн. осадки} 10/8 600 м
[Sc Ac und]
-1.7 -5.6 75 -6 -6 по сезону 1030.6 1020.8 -1.7 0.5 116
09 19.05 З 2 50 км 10/8 600 м
[Sc Ac und]
-1.8 -5.7 75 -6 -5 по сезону 1030.9 1021.1
12 19.05 З 2 50 км {снег} 9/8 600 м
[Sc Ac trans]
-2.0 -5.9 75 -6 -5 по сезону 1031.2 1021.4
15 19.05 СЗ 2 50 км 9/8 600 м
[Sc Ac trans]
-2.1 -5.3 79 -6 -5 по сезону 1031.4 1021.6 0.0
18 19.05 З 1 50 км 10/8 600 м
[Sc As trans]
-2.0 -5.4 78 -4 -4 по сезону 1030.8 1021.0 -1.6 0.0

 

Местоположение метеостанции Баренцбург (Шпицберген, Россия): широта 78.07 долгота 14.25 высота над уровнем моря 75 м.

В архиве по умолчанию представлена погода в Баренцбурге за последнюю неделю. Архивные данные за месяц целиком и за предыдущие месяцы, начиная с января 2011 года, Вы можете получить, выбрав интересующий диапазон дат из раскрывающегося списка и нажав кнопку "Ввод!".


*Определитесь, кто Вы:
робот инопланетянин человек

Внимание! Время в таблицах - всемирное. Для получения местного времени необходимо прибавить поправку, которая равна 1 ч.

Смотрите также архив погоды в соседних городах и на ближайших метеорологических станциях:

Погода в Свальбард аэропорту (Норвегия) (35 км)
Погода на Акселойа (Норвегия) (45 км)
Погода в Пирамиде (Норвегия) (81 км)
Погода в Ню-Олесунн (Норвегия) (108 км)
Погода на Хорнсунне (Норвегия) (123 км)
Погода на Сёркаппёйа (Норвегия) (186 км)
Погода на Эдже (Норвегия) (196 км)
Погода на Верлегенхукен (Норвегия) (224 км)
Погода в Хопене (Норвегия) (315 км)
Погода на Конгсёйа (Норвегия) (337 км)

Пояснения к столбцам:

Ветер - указаны скорость ветра в м/с - средняя за 10 мин, порывы в срок и между сроками (в фигурных скобках) и направление, откуда дует ветер: С - северный, СВ - северо-восточный, В - восточный, ЮВ - юго-восточный, Ю - южный, ЮЗ - юго-западный, З - западный, СЗ - северо-западный.
Видимость - горизонтальная дальность видимости в метрах или километрах. При видимости от 1 до 10 км при отсутствии осадков обычно наблюдается дымка, при ухудшении видимости до 1 км и менее - туман. В сухую погоду видимость может ухудшаться дымом, пылью или мглою.
Явления - указаны атмосферные явления, наблюдавшиеся в срок или в последний час перед сроком; фигурными скобками обозначены явления, наблюдавшиеся между сроками (за 1-3 часа до срока); квадратными скобками обозначены град или гололедные отложения с указанием их диаметра в мм.
Облачность - указаны через наклонную черту общая и нижняя облачность в баллах и высота нижней границы облаков в метрах; квадратными скобками обозначены формы облаков: Ci - перистые, Cs - перисто-слоистые, Cc - перисто-кучевые, Ac - высококучевые, As - высокослоистые, Sc - слоисто-кучевые, Ns - слоисто-дождевые, Cu - кучевые, Cb - кучево-дождевые. Подробнее классификацию облаков см. в Атласе облаков (PDF).
T - Температура воздуха - температура, измеренная на высоте 2 м над землей.
Td - Температура точки росы - температура, при понижении до которой содержащийся в воздухе водяной пар достигнет насыщения.
f - Относительная влажность воздуха - влажноcть воздуха, измеренная на высоте 2 м над землей.
Te - Эффективная температура - температура, которую ощущает одетый по сезону человек в тени. Характеристика душности погоды. При расчете учитывается влияние влажности воздуха и скорости ветра на теплоощущения человека.
Tes - Эффективная температура на солнце - температура, которую ощущает человек, с поправкой на солнечный нагрев. Характеристика знойности погоды. Зависит от высоты солнца над горизонтом, облачности и скорости ветра. Ночью, в пасмурную погоду, а также при ветре 12 м/с и более поправка равна нулю.
P - Атмосферное давление - приведенное к уровню моря атмосферное давление.
Po - Атмосферное давление - измеренное на уровне метеостанции атмосферное давление.
Tmin - Минимальная температура - минимум температуры воздуха на высоте 2 м над землей.
Tmax - Максимальная температура - максимум температуры воздуха на высоте 2 м над землей.
R - Количество осадков - Количество выпавших осадков за период времени, мм. При наведении курсора мыши на число - период времени, за который выпало указанное количество осадков.
R24 - Количество осадков - Количество выпавших осадков за 24 часа, мм.
S - Снежный покров - Высота снежного покрова, см. При наведении курсора мыши на число - состояние снежного покрова и степень покрытия местности в баллах.